Theta_e
356 357 357 357 357 356 356 355 356 356 356 356 355 354 354 355 355 355 354 354 355 354 352 350 350 351 351 351 350 349 349 348 349 351 352 354 354 354 354 352 352 352
356 357 357 357 357 357 356 355 355 356 357 356 356 355 354 354 355 356 354 354 355 355 354 353 352 351 351 351 350 349 349 349 350 351 352 353 354 354 354 351 351 350
357 357 357 357 357 357 357 357 355 356 356 356 356 355 355 354 354 355 355 355 355 355 355 355 354 351 350 351 350 351 351 350 351 351 351 352 353 354 353 351 350 349
357 358 357 357 357 357 357 358 357 356 356 356 356 356 356 355 352 351 354 355 356 355 355 355 353 350 350 352 352 352 352 352 352 351 350 352 353 353 352 351 350 349
357 358 357 356 356 356 356 357 357 357 357 357 356 356 356 355 354 353 354 355 355 354 353 353 352 351 352 353 352 352 353 352 352 351 352 353 353 353 352 351 350 350
357 357 357 356 356 356 356 357 356 356 357 356 356 356 356 357 355 354 355 355 354 354 353 351 351 351 352 353 352 352 353 352 353 353 353 353 354 354 353 351 351 350
357 358 357 357 357 356 356 357 356 356 356 356 355 355 356 357 355 354 355 355 355 354 352 350 351 351 351 353 352 351 352 352 353 353 352 353 354 354 353 352 351 350
357 357 357 357 357 357 356 356 356 356 355 355 355 355 356 355 355 355 355 355 355 354 352 350 351 351 351 352 351 350 351 352 352 352 351 353 354 354 354 354 351 350
356 356 357 357 357 356 356 355 355 355 354 354 355 354 355 355 354 355 355 354 353 353 353 353 352 351 351 351 350 349 350 351 351 349 350 353 354 353 354 354 352 351
355 356 357 358 357 356 355 355 355 354 352 353 354 354 355 355 353 353 354 354 353 352 353 354 353 352 351 351 350 349 349 350 350 349 349 350 351 352 353 353 353 352
354 354 356 356 356 356 355 355 354 353 352 352 354 354 355 355 353 353 354 353 353 352 351 352 354 353 351 351 350 349 349 349 349 350 350 350 350 351 352 352 353 352
353 354 355 355 355 356 356 355 354 354 353 351 351 352 353 354 353 352 353 353 353 353 352 353 354 353 351 351 350 350 350 349 349 350 351 351 352 351 351 351 352 352
356 355 356 356 357 357 356 356 356 355 353 351 349 350 352 353 352 352 352 354 355 355 355 355 353 351 351 351 350 351 351 350 350 350 351 351 351 351 350 349 350 351
358 357 357 357 358 358 357 357 356 355 354 352 350 350 351 352 353 352 352 353 355 355 355 354 352 350 351 351 351 352 351 351 351 351 351 351 351 350 349 348 348 350
358 357 358 358 359 359 357 355 355 354 354 353 352 352 352 352 352 353 352 352 353 354 354 354 353 352 351 350 351 352 351 351 351 351 351 351 350 349 349 348 348 348
358 358 358 358 359 359 356 354 354 353 352 352 353 353 353 352 352 352 352 352 353 353 354 355 355 355 354 352 351 352 352 352 351 351 350 350 349 349 349 349 349 348
355 354 354 355 356 356 355 355 355 354 353 353 352 352 352 352 351 350 351 351 351 352 353 354 356 356 356 355 353 352 352 351 352 351 351 350 350 351 351 351 350 350
352 350 351 351 353 353 352 353 354 354 354 353 352 352 352 351 350 350 350 349 349 350 351 353 355 355 355 355 354 352 352 352 352 352 351 351 351 352 352 352 352 351
350 349 350 350 351 350 349 349 349 349 352 353 353 353 352 352 351 351 351 349 347 348 349 350 352 354 355 355 354 352 352 352 352 353 352 351 352 352 353 353 353 352
346 347 348 349 349 348 347 348 347 347 349 352 353 353 352 353 352 352 352 350 347 346 346 348 351 353 354 354 353 352 352 352 352 353 352 351 352 353 353 353 353 352
343 345 346 347 347 347 348 348 348 348 348 349 350 351 352 353 353 353 353 351 350 349 347 347 350 352 353 352 353 353 352 351 351 351 351 351 352 353 353 354 353 353
341 345 348 348 346 346 347 348 349 348 348 349 349 350 352 354 354 354 353 350 350 350 346 345 347 351 352 352 351 352 351 349 347 349 351 351 351 352 353 354 355 355
339 342 347 349 349 348 347 347 348 349 349 350 350 351 353 353 352 351 349 348 348 348 347 347 348 351 352 352 351 351 351 348 345 347 350 352 350 350 351 352 353 355
339 339 341 346 350 350 349 348 349 350 351 351 351 352 353 352 351 349 348 349 349 349 349 349 350 350 352 352 351 351 351 348 345 344 348 350 350 349 349 347 349 354
340 340 340 341 345 348 349 350 350 350 351 350 349 350 351 351 351 350 350 350 349 348 349 350 349 349 350 351 351 350 349 349 346 344 347 351 351 350 348 346 348 354
340 341 341 340 341 343 345 347 348 350 351 349 349 350 351 351 351 350 350 350 348 346 347 348 349 349 350 350 350 350 349 349 348 347 349 351 351 348 347 346 348 352
Wind_Speed
12 12 13 13 13 14 15 14 13 12 11 11 12 15 16 16 16 16 19 20 19 20 22 22 22 22 20 19 19 18 18 17 16 18 19 18 17 16 16 17 17 18
14 14 13 13 13 14 14 14 13 11 10 10 11 12 15 17 17 16 18 20 19 19 20 20 22 23 21 20 19 19 19 18 16 18 19 20 19 18 18 18 18 20
15 15 14 13 13 13 12 10 11 13 10 8 10 10 12 15 17 17 18 18 18 19 18 17 20 24 22 21 21 20 20 18 17 18 18 19 20 19 19 19 19 20
14 14 14 14 14 13 12 9 9 10 9 8 9 10 11 13 16 18 18 17 17 18 19 17 20 24 23 22 21 20 19 20 19 18 17 19 21 20 19 19 20 20
10 11 12 14 14 12 12 11 11 10 9 9 10 11 12 12 13 15 15 16 17 18 20 20 21 24 23 23 23 21 20 20 18 17 18 20 21 21 20 20 20 20
7 9 10 11 11 11 11 11 12 10 9 10 11 11 12 12 13 14 13 15 16 16 20 24 23 24 23 23 24 23 21 19 15 17 21 22 20 20 20 20 20 20
7 8 9 10 10 11 11 11 10 9 10 11 12 12 13 12 12 13 13 15 15 15 20 24 25 25 23 23 25 25 22 19 16 19 22 22 21 20 20 20 21 21
7 8 9 10 10 11 11 10 9 9 10 11 12 14 15 14 13 12 13 14 15 17 20 23 25 25 24 24 25 24 21 20 21 21 21 22 22 22 21 21 21 21
6 7 8 9 9 10 10 9 9 9 10 12 13 15 16 16 16 15 15 15 15 17 20 21 22 24 25 26 26 24 20 21 24 24 21 20 22 23 23 23 22 21
6 6 7 8 9 9 10 9 10 10 10 12 14 15 16 17 18 18 18 17 16 17 18 20 21 23 25 27 28 27 25 24 25 26 25 23 23 23 23 23 23 22
8 9 8 8 9 9 9 9 9 9 9 10 12 15 17 18 18 18 19 19 17 17 19 19 20 22 24 26 28 29 28 27 27 27 25 22 22 24 26 25 25 24
8 10 10 9 10 9 8 8 7 8 8 9 12 15 17 17 18 18 18 19 18 19 20 18 18 22 23 24 26 28 27 27 27 27 26 22 19 22 25 25 25 26
10 10 9 9 10 9 8 8 6 6 8 8 9 14 16 16 19 21 21 20 19 19 19 19 20 22 23 24 26 27 26 26 26 27 28 26 24 23 24 26 28 27
11 10 9 9 10 10 9 8 6 7 9 10 10 11 14 15 18 21 23 23 22 20 19 20 22 23 23 24 25 26 26 25 25 26 28 27 26 26 25 27 32 29
12 11 10 10 10 9 9 9 9 10 11 11 12 12 13 16 18 20 22 23 24 22 19 19 21 23 25 25 26 26 27 27 26 25 26 26 24 24 24 27 33 34
12 10 10 10 9 8 8 8 9 10 10 12 11 10 12 14 16 19 22 23 24 23 22 21 21 20 21 23 26 27 28 29 28 26 25 24 23 23 24 27 30 31
14 14 14 13 10 9 9 8 9 11 12 12 10 10 12 13 14 17 21 21 21 22 23 23 23 21 20 22 25 28 29 29 28 27 26 25 24 24 23 23 24 24
16 19 19 15 10 9 10 9 10 13 14 14 12 12 14 15 15 17 18 18 19 22 23 23 24 24 23 24 25 27 28 28 28 28 28 28 27 26 24 22 21 22
18 20 20 18 14 13 14 13 13 15 15 15 15 15 16 15 15 17 18 17 18 23 24 24 25 25 24 26 28 28 28 29 30 30 31 30 27 26 25 24 24 25
20 20 21 20 19 19 18 15 13 14 14 14 15 15 16 17 17 17 18 17 17 21 24 25 26 24 21 22 26 28 30 31 32 33 33 31 27 24 24 25 26 27
22 22 22 23 23 23 21 16 12 13 14 15 16 16 16 17 17 17 17 17 17 18 21 24 25 24 22 21 23 25 27 29 32 33 33 31 28 23 22 23 25 25
23 23 22 23 25 25 24 21 17 14 14 16 17 17 16 16 17 16 15 15 14 12 13 17 20 21 21 22 22 23 24 26 29 29 27 27 27 24 22 22 23 25
22 24 23 21 23 26 26 25 23 18 15 16 16 16 15 14 14 14 14 14 13 10 10 13 16 19 20 21 20 20 21 24 25 24 23 25 27 26 25 24 24 27
21 24 25 22 21 24 25 26 25 21 18 18 17 16 17 15 13 13 14 15 14 13 15 18 20 20 20 21 20 17 18 23 24 23 25 25 24 25 27 27 27 27
20 23 25 25 23 23 24 24 24 22 20 20 20 19 18 15 14 16 19 19 16 16 18 19 19 20 21 21 20 16 17 23 26 25 25 25 22 21 23 25 26 26
21 22 24 25 25 24 24 23 23 22 21 20 20 17 13 11 14 18 21 21 18 16 16 17 17 19 21 21 20 17 16 21 25 26 24 23 21 19 19 21 23 23
Wind_Direction
247 238 236 240 238 236 236 229 219 208 210 216 215 216 215 214 221 225 224 223 222 223 219 215 218 216 216 220 218 222 218 214 240 241 217 216 222 219 222 222 220 224
235 234 235 235 240 246 246 241 232 217 214 221 220 223 221 216 217 220 222 223 221 220 216 211 216 215 215 218 218 223 221 212 229 242 223 215 220 221 224 224 222 225
222 226 231 233 239 249 251 250 246 237 231 229 228 228 226 222 221 218 216 219 220 218 214 210 213 214 214 216 217 219 218 212 220 235 231 220 219 222 224 225 226 227
219 224 229 236 243 249 252 252 252 247 241 238 236 229 224 226 227 222 215 215 219 217 212 210 210 211 212 213 215 216 215 213 209 217 236 234 222 222 226 227 229 229
225 229 233 242 246 248 249 247 248 251 249 247 246 234 223 223 225 221 216 216 220 218 214 213 209 208 208 208 212 216 215 215 209 212 237 242 227 224 227 227 230 232
234 240 244 245 246 247 247 246 248 251 253 254 252 240 225 222 223 220 219 221 221 219 216 214 212 209 209 208 212 216 212 211 215 223 235 241 233 228 227 228 230 232
246 249 252 250 249 251 250 251 253 251 255 256 251 245 237 231 231 227 226 225 222 221 218 216 213 211 213 213 213 215 211 208 220 229 232 236 236 233 231 232 232 230
258 258 258 257 255 255 254 255 256 253 256 256 249 249 248 240 234 232 230 228 228 229 224 219 215 212 214 217 216 215 212 212 222 228 230 234 235 235 235 236 236 231
271 263 259 261 262 263 262 257 256 254 252 254 250 248 248 240 232 231 229 227 230 233 230 223 218 215 214 216 217 217 213 214 221 224 227 233 232 233 236 237 238 234
313 300 278 270 268 267 265 258 258 256 253 259 257 249 247 241 231 230 231 227 225 233 235 227 220 218 216 214 216 218 216 217 220 220 225 232 232 233 234 234 236 237
328 316 304 291 279 270 267 264 264 260 254 262 263 255 253 249 239 233 235 233 228 232 237 233 225 222 221 220 220 222 223 223 222 221 226 234 236 238 239 234 231 233
331 312 310 304 289 275 270 268 261 251 247 257 268 264 258 256 254 244 237 235 233 231 231 230 229 228 228 227 226 227 228 228 226 223 225 231 235 241 247 246 237 231
345 329 324 314 300 291 286 281 269 249 243 243 260 270 268 264 261 252 240 235 234 234 232 230 234 235 233 231 230 231 231 230 230 229 228 230 235 240 249 259 254 239
346 335 323 311 304 298 288 279 262 247 244 225 216 242 263 267 265 261 256 249 243 240 238 236 237 238 238 237 235 233 231 232 235 236 232 229 232 235 243 259 267 259
340 331 318 307 303 299 289 278 259 245 241 229 211 215 239 257 263 265 266 263 257 251 245 241 239 238 239 241 240 236 234 235 238 240 237 230 230 235 239 251 267 273
337 329 318 311 307 302 299 290 275 258 241 233 228 224 234 251 265 269 267 266 264 259 252 245 240 238 239 241 242 239 238 239 240 239 238 236 236 239 239 242 253 267
331 321 312 310 307 300 300 293 284 281 269 251 241 234 231 235 248 263 268 271 273 270 262 253 246 243 243 244 244 241 239 241 242 240 237 238 240 240 240 243 243 247
325 324 320 319 314 300 295 287 277 281 282 276 263 247 239 234 232 241 251 258 263 264 261 256 252 249 247 245 244 241 238 239 242 243 242 243 244 242 242 248 247 240
326 328 326 324 319 310 304 294 284 285 286 283 279 268 257 252 244 239 240 241 247 252 252 251 251 249 245 244 244 242 240 239 241 244 245 245 245 244 245 248 249 247
329 328 326 325 322 319 317 308 298 299 297 289 283 276 270 267 263 254 248 247 249 252 250 249 248 246 246 249 249 245 242 241 241 243 244 243 242 242 245 245 245 248
325 322 323 323 322 321 322 317 308 304 303 299 291 281 278 279 274 261 253 255 256 251 249 253 255 252 251 254 254 251 247 243 241 240 240 242 242 241 245 246 244 245
318 315 314 315 317 318 318 317 314 307 304 306 301 292 286 283 278 273 274 276 271 259 263 272 272 267 262 258 256 255 253 248 242 239 241 248 250 245 243 246 246 245
312 309 306 304 306 309 311 314 315 312 309 307 304 298 294 290 288 294 299 296 286 277 275 271 267 268 269 267 263 257 252 248 245 245 250 256 256 250 247 249 250 248
305 304 304 302 299 299 303 309 311 310 309 308 305 302 300 299 300 299 288 276 267 260 255 250 250 256 260 261 261 257 250 245 243 247 255 254 249 245 243 243 244 246
302 299 301 302 301 298 296 300 303 303 301 303 304 305 305 303 299 291 279 269 261 256 256 257 257 256 255 256 258 254 247 241 234 235 246 249 247 245 244 241 239 240
300 297 296 298 300 301 297 295 297 297 297 300 304 306 306 301 294 287 281 277 273 264 262 267 267 261 257 259 260 254 249 245 236 231 238 245 250 255 260 259 253 247